Wetbulb
52.55 52.32 52.22 52.01 51.94 51.27 43.27 33.25 28.61 39.38 39.13 30.41 26.65 26.04 30.53 36.99 32.95 34.58 32.12 30.67 28.61 26.39 26.98 24.80 23.99 26.38 30.34 35.33 34.98 29.12 30.07 25.24 18.79 26.25 32.19 33.83 33.59 29.19 27.76 22.91 16.44 25.23 23.37 20.53
52.39 52.07 51.94 51.89 51.44 49.29 38.13 33.02 32.58 39.03 36.46 23.82 25.22 29.76 31.94 33.20 32.18 31.82 31.90 30.02 31.38 30.63 27.56 25.35 27.53 27.95 34.10 36.07 34.62 31.67 32.13 25.12 14.82 21.04 28.66 31.83 30.79 31.04 30.20 27.83 25.99 22.60 16.48 20.18
52.30 51.92 51.59 51.61 51.18 50.32 38.67 32.12 26.19 32.80 32.06 29.10 28.18 28.12 29.06 29.78 33.69 32.83 33.52 31.34 32.05 29.73 27.53 28.82 27.49 28.24 33.61 35.89 35.42 40.77 37.54 28.65 23.21 17.03 21.14 27.96 28.07 30.66 30.51 30.70 26.13 22.00 22.42 24.06
51.94 51.91 51.29 51.48 51.17 49.48 37.31 30.14 27.34 29.54 26.73 28.70 27.33 27.89 29.58 28.93 28.80 31.95 32.90 30.45 30.90 29.78 26.50 27.02 27.14 28.66 31.00 33.88 37.69 35.22 34.23 27.52 27.07 28.65 29.41 29.58 29.72 30.01 30.18 28.56 29.83 25.16 24.82 26.88
51.17 51.58 51.60 51.68 50.98 47.10 35.92 31.32 29.07 28.70 26.99 28.35 26.18 28.52 28.09 28.99 29.63 30.37 29.08 29.59 30.72 29.20 27.58 28.91 27.53 29.24 29.59 29.28 31.31 32.21 33.79 28.66 28.48 27.18 29.12 28.39 27.73 30.04 30.76 31.03 31.04 30.58 31.22 30.72
50.76 51.18 51.65 51.49 50.04 43.99 35.26 34.07 33.67 31.55 28.57 25.62 25.30 25.69 27.85 29.72 31.18 31.69 32.58 31.89 29.93 29.25 31.31 32.27 31.25 32.18 32.04 30.81 31.61 30.16 30.94 31.67 28.59 21.56 25.82 25.83 22.52 27.30 29.13 30.43 31.27 32.19 28.45 33.30
50.86 50.68 51.19 51.20 50.49 43.30 36.46 34.91 33.87 29.82 25.91 26.62 27.11 28.80 29.45 30.32 30.70 28.89 32.50 33.15 30.97 32.27 35.50 34.18 31.73 29.63 30.09 30.34 31.63 32.57 28.00 27.30 30.48 24.65 22.49 15.56 25.96 28.82 30.87 30.40 32.25 34.01 33.92 34.78
51.77 50.66 50.31 50.67 50.49 46.42 36.49 35.62 35.02 30.86 25.61 27.13 28.40 28.44 29.03 28.52 29.67 29.94 31.37 33.60 34.32 35.75 32.99 28.82 27.24 24.54 26.00 28.30 28.83 29.37 30.20 28.56 27.83 22.03 21.30 22.78 26.54 26.74 27.72 27.88 28.32 33.42 34.13 35.89
52.47 51.58 50.63 50.14 50.35 47.58 38.08 35.43 36.15 32.93 28.29 25.99 30.22 28.52 28.90 27.29 24.60 26.93 30.60 33.94 34.84 33.70 30.69 29.45 22.44 18.99 22.04 22.25 23.75 29.11 29.40 28.71 28.76 24.85 19.64 15.80 23.00 28.86 32.79 30.27 23.64 30.91 32.89 33.38
52.84 52.47 51.53 50.58 50.28 48.45 39.82 36.75 36.17 33.55 28.55 29.00 31.30 28.97 28.58 30.30 27.30 26.35 27.36 29.33 30.85 31.65 28.22 26.33 22.45 21.26 23.88 20.18 20.80 25.77 27.51 28.64 26.28 26.06 23.97 23.16 29.03 30.55 32.30 20.72 25.57 31.30 32.81 32.84
51.56 52.03 52.30 51.44 50.57 49.65 43.33 38.40 37.27 34.12 29.17 29.95 32.67 34.49 31.31 29.92 29.22 27.49 29.32 30.11 28.68 27.91 26.24 25.49 23.84 23.13 23.86 20.15 21.74 23.88 23.67 22.41 22.53 26.16 22.83 16.74 30.28 30.13 27.15 30.17 28.22 33.33 33.76 33.75
51.32 51.71 51.99 51.67 51.06 50.41 44.95 38.25 39.09 37.34 32.45 32.88 33.74 35.44 35.77 36.26 35.35 32.47 29.92 29.36 28.63 30.37 26.16 25.71 25.26 24.61 18.53 21.29 19.58 21.23 22.79 25.84 23.27 24.88 25.16 30.47 30.65 30.45 34.12 31.18 32.73 33.21 33.43 35.10
49.93 51.09 51.95 52.39 51.12 50.64 47.17 40.99 38.70 36.32 34.02 33.98 32.88 32.97 34.96 35.67 36.07 37.37 32.20 31.20 33.81 31.41 31.18 27.19 26.37 25.04 24.78 20.45 20.39 19.17 24.43 27.28 25.54 26.20 28.92 31.51 34.28 34.85 32.74 34.57 34.39 35.32 34.94 35.54
48.05 49.06 50.13 51.20 51.85 50.76 47.61 43.33 40.53 39.27 35.59 30.07 32.01 35.30 32.99 35.04 35.64 36.37 36.37 35.15 34.95 33.72 32.63 30.03 28.42 26.75 28.03 23.99 24.50 22.91 25.16 26.21 25.17 24.45 30.49 31.18 33.47 31.90 34.10 35.34 32.81 33.16 34.02 34.77
46.69 46.95 47.66 49.37 51.15 50.43 48.20 44.65 42.44 41.10 36.66 30.06 31.38 35.19 33.67 34.42 34.97 35.25 36.03 35.62 33.74 31.56 29.80 28.18 27.48 27.93 26.58 25.93 25.12 21.63 25.62 26.83 25.90 29.27 32.08 30.56 30.21 30.13 30.40 30.46 31.73 32.06 30.90 31.19
45.98 46.70 47.75 48.44 50.34 49.84 45.47 39.47 41.53 41.93 39.91 33.11 28.29 32.75 29.27 32.46 33.07 33.49 33.02 34.00 32.13 31.33 30.06 28.54 28.65 29.51 29.09 24.87 23.69 28.34 28.73 34.70 36.10 34.12 32.56 30.50 31.34 30.31 31.18 31.46 32.65 32.32 31.86 31.79
46.27 48.36 49.36 49.45 49.70 46.70 40.56 37.73 38.27 43.81 42.31 35.15 31.02 28.70 29.77 31.46 31.18 31.04 30.71 31.38 30.34 30.87 29.73 28.04 27.95 28.54 30.48 25.62 26.82 29.34 30.06 30.85 33.01 34.63 31.06 32.09 31.65 32.17 31.13 31.36 33.05 34.15 32.10 31.40
48.20 49.37 49.51 50.13 50.24 47.68 43.35 42.44 45.12 42.68 38.33 34.57 29.66 27.44 25.34 29.98 28.05 27.72 29.40 28.45 28.58 29.07 28.76 27.47 26.39 27.33 27.02 25.29 30.72 31.53 32.65 31.79 31.51 31.08 31.35 33.77 34.66 29.92 32.09 30.77 30.27 29.68 29.77 29.82
48.18 48.06 47.50 45.66 43.38 40.51 40.85 45.29 45.02 41.77 37.79 32.11 28.49 21.01 23.49 29.04 27.74 28.26 28.74 28.54 26.27 28.27 26.41 25.93 27.43 25.82 24.25 30.10 30.42 30.76 32.64 31.41 33.21 34.08 33.38 30.15 29.76 31.21 30.72 29.11 29.20 28.54 29.28 29.46
46.67 44.71 40.32 36.73 40.01 44.81 43.72 40.29 36.58 36.04 36.42 35.10 31.02 27.28 23.20 27.42 26.37 26.12 25.34 26.63 25.68 22.14 25.16 26.92 25.31 25.27 30.75 33.38 33.91 34.89 34.82 33.70 32.32 28.89 29.88 29.26 29.80 30.26 29.21 28.34 30.55 30.59 29.80 29.83
39.80 37.07 36.27 40.12 43.75 39.88 37.66 33.56 32.44 32.44 30.05 32.23 32.49 28.21 24.48 28.34 23.22 24.62 27.69 19.63 23.31 19.07 20.31 21.14 20.02 21.10 26.99 30.79 31.51 32.81 32.84 32.38 32.19 31.31 31.96 32.30 32.13 31.79 29.73 28.77 28.84 29.39 29.48 29.76
38.35 39.10 40.45 39.20 36.28 32.97 30.91 29.93 31.59 30.68 26.27 29.43 29.91 30.78 29.52 26.38 28.99 28.20 27.94 24.34 22.31 16.46 23.26 21.73 18.46 23.96 28.30 29.22 30.31 31.59 31.10 30.68 30.36 30.19 29.38 29.94 29.99 29.86 29.35 29.18 29.39 30.10 30.88 31.61
37.19 34.93 32.39 32.20 31.59 25.76 24.42 19.17 25.38 25.19 22.53 22.20 26.72 25.13 30.01 29.96 31.14 30.48 28.43 21.75 18.52 22.94 20.95 19.30 20.52 24.17 27.88 28.97 29.89 30.17 29.91 29.12 28.68 28.87 29.59 29.70 29.73 30.15 30.41 30.50 30.98 31.33 31.37 31.78
31.33 27.37 22.89 25.33 20.01 27.47 26.00 20.54 19.66 23.88 22.64 23.00 23.73 22.66 26.79 29.62 28.76 29.34 24.61 26.28 22.67 16.59 14.20 13.77 18.47 23.99 28.54 30.06 29.65 27.82 28.17 28.34 28.51 29.15 29.87 29.58 30.87 31.00 31.32 31.66 31.34 31.02 30.42 30.83
26.24 27.92 21.51 21.37 24.43 21.55 26.84 28.38 26.74 29.14 28.81 27.48 27.75 26.93 27.41 27.14 26.81 27.95 26.71 21.95 18.10 16.42 15.84 21.78 24.99 27.15 26.35 29.57 29.73 27.00 26.65 27.15 27.05 26.50 27.29 28.79 30.36 30.72 31.27 31.42 31.08 30.97 31.02 30.49
29.17 27.60 24.83 27.47 26.56 23.05 26.71 26.93 25.53 28.69 29.36 31.54 31.27 27.96 25.83 24.49 25.50 22.98 17.61 17.08 15.55 19.82 19.84 26.95 24.11 26.90 30.63 31.60 32.09 31.54 29.77 27.27 26.34 26.34 27.71 29.81 29.39 29.05 30.39 30.59 31.53 31.16 31.52 31.47
26.15 23.34 25.35 22.39 20.56 20.77 21.43 26.35 28.99 33.50 31.81 25.68 29.54 25.81 24.85 28.20 24.22 22.46 21.14 16.76 21.27 28.40 29.83 28.86 28.61 29.43 31.02 31.69 31.30 32.09 32.66 32.01 31.48 30.22 30.26 30.60 31.08 30.58 30.17 30.60 32.27 29.42 30.27 31.31
MSLP
1023.34 1022.89 1022.32 1021.70 1021.13 1020.53 1020.51 1021.41 1021.47 1020.43 1020.11 1021.46 1023.40 1024.37 1023.96 1023.50 1023.48 1023.24 1023.30 1023.56 1024.06 1024.56 1024.93 1025.21 1025.35 1025.18 1024.72 1024.55 1024.84 1025.55 1026.10 1026.87 1027.29 1026.65 1026.12 1026.02 1026.22 1026.66 1027.24 1028.10 1028.47 1028.33 1027.76 1023.76
1023.48 1023.09 1022.60 1022.04 1021.48 1021.06 1021.40 1022.17 1021.92 1020.57 1020.33 1022.84 1024.53 1024.42 1024.07 1023.61 1023.49 1023.38 1023.35 1023.43 1023.57 1023.99 1024.50 1024.93 1024.93 1024.85 1024.40 1024.42 1024.67 1025.10 1025.68 1026.60 1026.92 1026.77 1026.63 1026.31 1026.01 1026.00 1026.38 1026.83 1027.08 1026.72 1026.40 1022.27
1023.54 1023.19 1022.84 1022.32 1021.72 1021.49 1021.91 1022.81 1022.94 1022.35 1022.82 1024.22 1024.20 1024.41 1024.26 1023.88 1023.56 1023.46 1023.44 1023.45 1023.57 1023.90 1024.23 1024.48 1024.79 1024.76 1024.41 1024.38 1024.48 1024.66 1025.15 1025.99 1026.41 1026.32 1025.82 1025.52 1025.49 1025.20 1025.39 1025.76 1025.75 1024.94 1022.96 1020.68
1023.64 1023.32 1022.91 1022.49 1021.89 1021.53 1022.17 1023.70 1024.64 1024.55 1024.78 1024.72 1024.46 1024.17 1024.01 1023.86 1023.71 1023.52 1023.47 1023.61 1023.62 1023.79 1024.38 1024.68 1024.74 1024.75 1024.58 1024.51 1024.43 1024.86 1025.25 1025.61 1025.87 1025.53 1025.33 1025.11 1024.60 1024.51 1024.47 1024.31 1023.65 1023.31 1020.60 1020.11
1023.78 1023.48 1023.06 1022.65 1022.15 1021.69 1022.60 1024.11 1024.56 1024.92 1024.86 1024.68 1024.44 1024.35 1024.07 1023.77 1023.70 1023.76 1023.69 1023.82 1023.70 1024.04 1024.05 1023.91 1024.15 1024.50 1024.76 1024.59 1024.97 1025.10 1025.28 1025.26 1025.18 1024.55 1024.01 1023.92 1023.43 1022.59 1022.56 1022.26 1022.08 1021.33 1020.39 1018.77
1023.73 1023.63 1023.29 1022.89 1022.35 1021.93 1023.27 1024.33 1024.27 1024.34 1025.28 1024.97 1024.66 1024.23 1023.91 1023.63 1023.52 1023.55 1023.43 1023.72 1023.83 1023.88 1023.84 1023.94 1024.07 1024.21 1024.39 1024.55 1024.89 1025.42 1025.60 1025.50 1025.28 1024.58 1024.09 1023.68 1021.95 1019.31 1019.42 1019.76 1019.57 1019.29 1019.63 1016.10
1023.75 1023.53 1023.44 1023.20 1022.97 1022.76 1023.54 1024.36 1024.56 1024.68 1025.16 1025.07 1024.53 1023.89 1023.70 1023.67 1023.61 1023.63 1023.61 1023.62 1023.81 1023.84 1023.72 1023.97 1024.18 1024.40 1024.55 1024.82 1024.90 1025.00 1025.53 1025.69 1025.46 1024.66 1024.30 1022.63 1018.60 1018.04 1017.87 1018.21 1017.73 1017.95 1017.19 1016.22
1023.81 1023.57 1023.29 1023.35 1023.29 1023.21 1023.55 1024.05 1024.40 1024.81 1024.93 1024.60 1024.00 1023.91 1023.76 1023.69 1023.70 1023.92 1023.89 1023.76 1023.71 1023.66 1024.05 1024.60 1024.83 1024.96 1025.05 1024.71 1025.03 1025.31 1025.27 1025.38 1025.23 1025.09 1024.43 1021.14 1017.36 1017.22 1017.25 1017.40 1015.98 1015.45 1015.67 1015.39
1023.76 1023.54 1023.31 1023.16 1023.33 1023.40 1023.76 1024.30 1024.31 1024.38 1024.81 1024.26 1023.69 1023.53 1023.65 1024.04 1024.31 1024.22 1023.86 1023.99 1024.11 1024.24 1024.79 1025.23 1025.69 1025.54 1024.99 1025.27 1025.64 1025.64 1025.80 1025.57 1025.43 1025.43 1024.65 1021.79 1017.78 1016.75 1016.44 1016.36 1015.66 1014.27 1014.88 1015.17
1023.74 1023.48 1023.31 1023.16 1023.21 1023.28 1023.82 1024.24 1024.30 1024.45 1024.81 1023.65 1023.35 1023.48 1023.51 1023.51 1024.06 1024.41 1024.46 1024.44 1024.62 1024.68 1025.30 1025.87 1026.10 1025.57 1025.01 1025.28 1025.50 1025.81 1026.11 1025.95 1025.18 1024.96 1024.15 1020.48 1017.02 1016.56 1016.37 1016.16 1014.76 1013.85 1014.25 1014.62
1023.73 1023.44 1023.25 1023.16 1023.16 1023.28 1023.65 1024.18 1024.47 1024.34 1024.58 1023.59 1023.04 1022.67 1022.87 1023.42 1023.54 1023.77 1024.33 1024.94 1025.20 1025.76 1025.90 1025.84 1025.57 1025.50 1024.89 1024.99 1024.63 1024.70 1024.91 1025.02 1024.64 1024.54 1023.58 1019.77 1016.24 1016.87 1016.22 1013.57 1013.20 1013.29 1013.76 1013.90
1023.64 1023.39 1023.17 1023.09 1023.13 1023.27 1023.57 1024.21 1024.40 1024.53 1024.53 1023.41 1022.80 1022.18 1021.80 1021.74 1022.03 1022.61 1023.75 1023.82 1023.88 1024.32 1025.26 1025.51 1025.24 1025.19 1025.03 1024.65 1024.71 1023.93 1023.65 1022.06 1022.24 1021.79 1018.81 1016.10 1015.78 1014.85 1013.97 1013.77 1013.65 1013.39 1013.42 1013.37
1023.52 1023.27 1023.04 1022.70 1022.81 1023.04 1023.47 1023.91 1024.29 1024.65 1024.57 1023.22 1022.82 1021.84 1021.72 1021.74 1021.84 1021.74 1022.62 1023.40 1023.14 1023.54 1023.39 1024.32 1024.89 1024.79 1024.21 1024.32 1023.57 1022.50 1021.57 1020.77 1020.82 1019.92 1015.24 1015.20 1015.00 1014.29 1013.95 1013.80 1013.61 1013.16 1013.07 1013.10
1023.73 1023.34 1023.02 1022.69 1022.47 1022.65 1023.16 1023.69 1023.97 1024.20 1024.41 1024.03 1022.16 1021.65 1021.57 1021.48 1021.55 1021.52 1021.80 1022.14 1022.84 1023.28 1023.72 1024.08 1024.20 1024.16 1023.20 1022.53 1021.87 1021.75 1020.25 1019.97 1018.87 1017.24 1014.42 1014.41 1013.61 1013.55 1013.22 1012.69 1012.90 1013.06 1012.92 1012.99
1023.95 1023.43 1022.92 1022.63 1022.34 1022.44 1022.83 1023.20 1023.31 1023.47 1024.12 1024.09 1022.76 1021.59 1021.77 1021.93 1021.86 1021.73 1021.68 1022.06 1022.66 1023.49 1024.09 1024.24 1024.15 1023.30 1023.16 1021.80 1021.38 1019.20 1018.79 1017.72 1017.24 1014.37 1013.41 1013.41 1012.80 1012.42 1012.31 1012.76 1012.67 1012.40 1012.67 1012.58
1023.65 1023.29 1022.90 1022.36 1022.16 1022.36 1022.93 1023.15 1023.30 1023.29 1023.62 1024.17 1023.56 1022.12 1021.76 1022.11 1022.27 1022.17 1022.53 1022.26 1022.68 1022.93 1023.26 1023.31 1022.77 1022.31 1022.25 1021.36 1019.12 1016.46 1015.69 1014.91 1014.33 1012.45 1012.79 1012.78 1012.32 1012.35 1012.26 1012.32 1012.12 1011.98 1012.16 1012.17
1023.01 1022.70 1022.45 1021.93 1022.02 1022.19 1022.53 1022.78 1022.97 1023.02 1023.34 1023.85 1023.61 1022.62 1022.25 1021.89 1022.78 1023.25 1022.82 1022.91 1022.91 1022.74 1023.08 1022.84 1022.34 1021.84 1021.64 1020.25 1017.11 1015.81 1015.09 1014.28 1013.55 1013.25 1013.35 1012.13 1012.26 1011.84 1011.67 1011.69 1011.37 1011.39 1011.55 1011.68
1022.71 1021.89 1021.50 1021.39 1021.68 1022.01 1022.42 1022.52 1022.61 1023.01 1023.33 1023.92 1024.04 1023.01 1022.81 1022.37 1022.61 1023.16 1023.80 1023.35 1023.10 1023.11 1022.41 1022.20 1022.00 1021.62 1020.93 1018.83 1015.47 1014.48 1013.91 1013.51 1013.08 1012.50 1012.35 1011.73 1011.47 1011.49 1011.29 1011.28 1011.34 1011.33 1011.20 1011.24
1022.71 1022.53 1022.22 1022.16 1022.25 1022.66 1022.61 1022.36 1022.56 1022.87 1023.59 1023.49 1023.75 1023.93 1023.01 1022.63 1022.69 1022.75 1023.28 1023.77 1023.60 1022.83 1022.57 1022.17 1021.59 1020.48 1019.04 1015.02 1014.58 1014.12 1013.68 1013.37 1012.39 1011.72 1011.53 1011.43 1011.26 1010.58 1010.44 1010.67 1010.89 1011.01 1010.65 1010.83
1022.55 1022.48 1022.64 1023.05 1023.36 1022.95 1022.91 1022.87 1022.92 1023.29 1022.89 1023.09 1022.76 1022.59 1022.68 1022.48 1023.05 1023.14 1023.42 1023.41 1023.62 1023.05 1021.83 1021.76 1021.24 1019.50 1015.76 1013.57 1013.45 1013.00 1012.42 1012.23 1012.01 1011.84 1010.43 1010.52 1010.21 1010.10 1010.00 1009.78 1009.73 1009.91 1010.00 1010.36
1023.17 1023.23 1023.17 1023.39 1023.45 1023.37 1022.90 1022.76 1022.53 1022.64 1022.82 1022.33 1021.70 1021.57 1022.11 1022.10 1022.45 1022.67 1022.61 1022.87 1023.15 1023.35 1021.98 1021.70 1020.94 1018.85 1014.70 1013.53 1012.92 1012.48 1012.24 1011.84 1011.51 1011.42 1010.41 1009.98 1009.70 1009.44 1009.41 1009.12 1009.14 1009.27 1009.54 1010.03
1024.21 1024.37 1023.80 1023.77 1023.59 1023.22 1023.33 1022.73 1022.60 1022.35 1021.96 1021.66 1021.33 1021.16 1021.58 1021.68 1021.46 1021.90 1022.57 1022.37 1022.97 1022.61 1021.89 1021.79 1020.23 1016.03 1014.33 1013.80 1013.10 1012.35 1012.11 1011.76 1011.00 1010.43 1009.90 1009.26 1008.76 1008.68 1008.85 1008.97 1009.01 1009.06 1009.25 1009.73
1024.29 1024.18 1023.82 1023.95 1023.72 1023.20 1022.71 1022.42 1022.47 1022.59 1021.86 1021.79 1021.65 1021.29 1021.20 1021.36 1021.20 1021.55 1021.88 1021.99 1022.13 1022.13 1022.15 1020.44 1017.33 1015.29 1014.05 1013.44 1012.89 1012.11 1011.55 1011.18 1010.73 1009.96 1009.14 1009.00 1008.73 1008.23 1008.48 1008.90 1008.87 1008.86 1009.11 1009.41
1024.76 1024.64 1024.16 1023.90 1023.23 1022.46 1022.10 1022.57 1022.30 1022.07 1022.09 1022.04 1021.90 1021.34 1021.12 1020.81 1020.93 1020.68 1020.98 1021.05 1021.30 1021.59 1021.60 1018.81 1016.46 1014.77 1014.10 1013.36 1012.76 1012.46 1011.84 1011.24 1010.88 1010.36 1009.81 1009.12 1008.93 1009.14 1008.50 1008.31 1008.79 1008.91 1009.03 1009.08
1024.92 1024.88 1023.86 1023.08 1022.55 1022.51 1022.24 1022.36 1022.56 1022.21 1021.88 1021.90 1021.67 1021.22 1021.04 1020.70 1020.27 1019.92 1019.99 1020.43 1020.31 1019.82 1017.93 1016.70 1014.90 1013.72 1013.22 1013.18 1012.71 1012.28 1012.06 1011.80 1011.16 1010.64 1010.54 1010.24 1009.72 1009.12 1008.93 1008.35 1008.23 1008.66 1008.74 1008.83
1024.81 1024.30 1023.65 1022.79 1022.85 1022.56 1022.48 1022.30 1021.99 1021.52 1021.63 1021.58 1021.55 1020.81 1020.27 1019.80 1019.16 1018.86 1018.90 1019.10 1018.33 1016.54 1015.89 1014.78 1014.05 1013.70 1012.91 1012.46 1012.34 1012.12 1011.77 1011.65 1011.30 1010.51 1009.83 1009.73 1009.73 1009.87 1009.63 1009.08 1008.68 1008.40 1008.53 1008.47
1023.97 1023.47 1023.26 1023.18 1023.03 1022.71 1022.21 1021.82 1021.45 1021.16 1021.64 1021.51 1021.33 1020.20 1019.16 1018.39 1017.74 1017.63 1017.57 1016.92 1015.69 1014.96 1014.74 1014.53 1013.84 1013.03 1012.57 1012.05 1011.98 1012.01 1011.59 1010.93 1010.40 1010.10 1009.72 1009.36 1009.03 1008.96 1009.10 1008.91 1008.12 1008.07 1008.23 1008.20
Wind_Speed
15 17 17 20 22 16 7 2 4 2 3 7 2 3 3 2 2 2 2 3 3 5 4 3 2 2 3 5 5 2 1 4 3 7 2 6 3 5 5 4 5 3 2 12
14 16 17 18 21 11 2 2 2 2 4 5 2 1 3 2 2 1 2 3 2 3 4 2 3 3 2 6 6 5 4 1 3 6 1 2 5 5 5 3 2 8 5 10
13 15 16 18 18 10 4 3 4 6 6 1 6 5 2 2 2 0 0 2 2 2 2 1 1 2 1 5 5 6 5 3 6 7 6 3 4 6 10 10 5 4 12 11
13 14 15 17 17 8 5 4 1 3 2 4 4 2 3 3 2 1 0 1 3 5 4 3 4 4 2 2 3 3 3 4 5 7 10 9 15 13 10 16 17 10 3 13
12 13 14 16 17 4 6 3 3 3 2 1 3 3 4 5 3 4 2 2 1 3 4 7 6 6 3 5 1 6 2 3 3 10 9 9 13 17 19 21 19 23 20 26
10 12 12 14 17 6 3 1 1 4 3 1 4 3 5 6 5 4 3 5 2 2 7 4 2 3 2 2 8 6 5 2 4 6 3 7 12 19 24 15 11 23 19 28
7 8 11 12 12 7 3 1 2 4 1 2 4 4 4 5 4 3 2 4 5 2 2 2 2 1 2 2 5 4 5 2 3 5 6 5 7 3 3 16 15 19 16 17
8 7 7 9 10 8 3 2 3 3 2 2 2 3 3 2 2 2 3 4 3 3 3 3 4 3 2 4 4 6 3 4 4 3 4 12 8 1 7 8 9 21 23 21
7 7 6 6 6 6 4 1 1 3 4 5 1 3 4 4 3 3 3 2 1 4 3 2 2 4 4 2 1 6 3 2 4 2 4 7 5 1 3 3 7 6 10 13
10 7 6 5 4 3 3 0 1 4 1 4 5 3 5 5 3 2 2 2 1 2 3 3 4 5 4 3 4 5 4 3 12 9 5 11 12 5 1 2 9 6 8 7
11 11 7 5 4 1 2 1 1 3 2 6 6 5 5 2 2 4 4 3 3 3 3 4 4 4 5 2 5 8 9 7 6 7 7 13 7 6 9 8 2 6 7 7
12 11 10 5 6 3 4 1 1 1 2 5 3 5 3 7 8 6 3 3 6 6 3 2 1 3 1 4 5 1 5 10 8 12 11 7 8 5 7 2 2 4 5 7
14 14 12 8 6 6 6 1 3 2 2 5 2 6 2 2 6 3 5 2 3 3 4 5 2 5 5 5 8 5 7 6 5 0 9 21 21 17 9 8 10 8 6 6
14 15 14 13 6 8 9 2 3 2 0 2 5 1 3 0 2 5 2 5 4 5 2 2 3 3 4 5 4 5 5 7 6 9 18 15 19 12 15 15 6 8 8 8
16 16 14 14 10 7 5 2 4 2 2 3 6 5 2 3 2 6 5 6 5 3 2 2 4 2 1 3 1 7 8 10 7 14 7 6 9 4 3 7 9 9 8 6
16 17 16 13 8 8 2 3 1 3 4 1 5 2 2 5 2 4 2 4 3 3 5 4 4 3 3 5 6 6 8 17 20 24 6 8 10 7 3 6 10 9 7 8
19 19 18 11 5 4 2 2 1 6 2 1 5 5 1 3 2 3 2 2 1 4 3 4 3 4 5 4 15 5 7 11 15 14 7 18 9 11 6 8 9 5 5 6
20 14 11 6 8 5 1 2 8 5 3 1 3 5 4 1 1 1 2 1 1 2 3 1 3 0 2 7 7 6 8 9 12 13 12 19 15 8 13 8 4 7 9 6
12 13 8 3 3 1 1 1 7 2 1 3 3 2 5 2 2 2 1 1 2 0 3 4 3 3 8 15 6 7 8 7 14 17 15 9 13 15 11 9 9 10 9 6
13 2 1 2 2 3 2 1 2 1 2 3 3 2 5 4 2 1 2 0 3 3 4 2 3 5 21 16 14 18 18 14 12 12 19 8 14 12 12 11 10 11 6 5
4 3 2 1 5 2 2 3 3 3 3 4 5 6 3 3 3 4 3 3 2 3 4 3 2 6 5 6 8 7 11 12 13 12 18 15 15 13 9 8 8 7 6 5
2 3 2 2 1 1 3 3 3 4 6 3 3 3 4 2 2 2 2 2 1 7 2 1 5 8 7 7 11 14 11 11 13 11 15 13 9 9 7 6 5 5 5 3
2 2 2 2 3 5 6 6 3 3 3 2 2 2 3 1 1 2 3 4 5 2 2 6 8 5 7 7 7 11 8 7 8 9 6 7 5 3 4 3 2 6 5 4
0 2 5 5 5 5 4 3 4 4 0 2 1 1 4 2 4 3 4 3 3 1 4 9 4 6 7 7 6 5 11 10 9 9 8 4 3 3 3 4 4 4 4 4
2 3 6 6 4 3 2 2 2 0 2 1 2 2 3 2 4 4 3 3 4 7 8 4 5 7 5 5 6 6 8 9 7 3 4 7 6 3 4 5 6 6 5 5
3 5 4 3 2 3 1 2 3 2 2 0 2 3 3 6 4 5 8 5 9 7 4 5 3 4 5 6 7 8 7 6 6 4 1 1 3 4 7 7 5 6 5 6
5 4 4 2 3 5 4 4 3 3 2 2 2 5 7 3 4 4 5 7 3 3 2 3 6 4 9 8 7 10 9 8 7 6 6 6 5 4 4 7 6 5 6 7
Wind_Direction
355 357 0 2 355 349 53 84 36 308 87 49 26 56 113 152 150 50 113 119 123 157 168 130 147 188 215 182 148 114 155 131 176 214 187 181 179 177 166 170 231 232 224 270
355 358 360 5 3 15 86 72 273 326 86 100 42 84 54 68 123 191 155 146 153 158 173 139 195 206 272 169 158 164 173 4 17 354 49 98 215 185 167 170 158 210 157 260
356 357 0 2 5 1 72 72 25 337 48 83 115 128 136 112 25 73 310 136 85 91 137 225 200 248 248 187 183 163 142 168 183 194 209 169 219 190 193 196 201 186 228 282
352 355 358 0 359 15 90 25 236 177 359 7 96 109 143 135 153 99 122 293 209 164 164 191 219 189 234 185 208 124 178 257 210 239 242 242 252 239 209 212 224 207 220 231
351 353 358 359 358 32 76 105 116 7 91 5 103 357 219 160 157 160 247 202 193 210 195 187 205 163 213 201 139 156 191 269 254 292 261 251 255 244 232 228 225 244 254 274
351 351 355 4 8 41 83 309 349 104 319 62 105 228 179 212 160 189 199 197 115 221 241 231 266 216 159 184 163 179 166 223 307 268 331 308 274 239 219 220 221 224 234 241
343 352 355 5 20 58 119 188 101 76 210 174 218 189 190 190 211 171 196 144 149 215 85 82 55 18 270 200 226 165 161 165 218 285 349 243 242 278 185 210 235 219 242 252
325 336 352 358 11 35 83 153 110 107 296 224 239 212 197 100 46 217 224 224 205 135 74 35 338 331 302 250 226 204 182 167 266 266 277 292 297 160 160 172 268 216 221 244
314 319 323 345 1 32 90 51 118 110 117 247 305 144 161 181 208 319 221 53 136 68 86 97 199 248 247 265 97 16 120 351 216 190 281 255 245 7 162 128 286 196 189 233
339 308 308 309 330 42 93 232 185 94 147 255 152 192 184 137 134 163 315 171 130 46 129 166 189 245 189 227 192 170 140 194 224 235 269 278 243 230 171 81 237 171 177 196
334 337 307 298 283 261 96 286 276 125 183 273 194 192 145 118 146 157 188 75 343 53 179 175 214 194 227 219 188 176 173 162 200 195 235 267 150 70 176 220 202 179 192 204
351 331 321 280 279 211 127 317 5 59 174 244 241 239 220 181 187 146 204 178 160 186 128 230 136 223 171 181 252 53 221 190 181 196 218 238 223 247 259 331 250 222 208 228
355 354 334 310 232 225 174 164 142 63 324 293 342 239 260 138 204 193 147 250 198 182 170 161 215 236 133 196 235 200 239 171 225 289 251 241 247 257 256 246 242 248 248 250
350 349 345 347 244 222 166 176 165 130 204 271 284 16 281 23 170 173 186 139 82 102 120 179 186 201 173 224 236 211 211 140 205 264 280 277 264 238 246 253 246 263 253 235
337 334 333 335 334 206 167 196 200 161 151 278 286 312 15 339 231 195 157 152 136 143 134 161 228 229 197 225 0 230 181 200 206 254 249 225 271 254 242 228 250 255 243 251
327 320 315 314 331 146 129 285 13 162 149 20 298 293 29 22 26 144 145 152 126 153 165 205 233 248 175 258 246 247 221 225 231 253 265 231 263 285 242 237 246 246 229 229
325 313 298 288 258 155 169 191 214 169 136 200 289 295 338 93 60 342 48 358 209 145 203 223 210 215 183 252 257 287 250 242 248 267 297 278 252 262 252 237 247 236 228 233
325 327 320 263 162 79 241 176 134 133 100 103 274 274 337 131 131 205 328 120 52 248 227 153 199 5 209 258 246 255 289 293 284 249 232 256 279 294 265 246 230 227 236 243
6 352 349 41 33 138 313 251 135 72 163 216 162 204 267 148 171 122 104 274 237 110 243 255 137 200 219 234 233 259 259 244 270 278 267 257 253 256 255 222 232 239 244 240
316 322 11 11 21 42 106 214 141 174 205 220 236 185 261 114 56 17 91 188 259 245 235 112 225 266 255 258 270 277 277 271 265 270 279 272 261 258 256 224 227 222 227 227
18 359 28 259 309 308 253 251 213 164 239 210 224 200 207 220 141 207 189 197 199 276 265 149 261 263 264 257 259 270 282 282 277 263 272 272 261 269 264 260 224 212 201 207
225 270 314 317 254 219 235 224 229 205 236 205 219 182 192 232 136 125 203 207 113 251 156 178 249 252 255 286 284 293 291 287 287 271 272 273 246 241 242 249 206 182 168 174
2 260 273 233 211 235 203 198 240 259 274 252 199 197 179 140 141 201 188 207 221 48 228 236 232 274 277 276 291 301 296 299 307 311 293 278 258 145 153 144 150 151 166 196
158 237 244 227 246 235 205 192 201 248 221 277 211 218 187 194 181 189 211 208 121 196 256 241 245 241 281 301 298 323 316 328 333 337 325 290 186 223 175 160 178 177 207 209
227 218 237 224 233 261 233 223 283 297 241 293 296 266 192 201 238 200 193 184 241 214 231 241 237 230 233 283 304 312 312 315 319 340 351 327 306 250 238 217 198 209 217 214
228 238 259 256 308 259 191 202 250 183 174 95 257 259 240 232 219 184 210 171 220 244 217 231 267 279 285 305 308 307 293 272 273 285 210 243 282 291 297 319 273 242 242 255
224 231 233 213 254 234 226 213 224 145 167 187 276 267 235 271 221 222 192 214 248 234 311 326 263 306 297 297 301 298 292 298 309 301 283 264 238 230 262 279 269 234 240 244